Weather History for KCFE - September, 2013

Change the Weather History Date:

Saturday, September 14, 2013

  Actual Average (KSTC) Record (KSTC)
Temperature  
Mean Temperature 59 °F 59 °F  
Max Temperature 69 °F 71 °F 95 °F (1939)
Min Temperature 49 °F 48 °F 31 °F (1996)
Degree Days  
Heating Degree Days 6 7  
Month to date heating degree days 69  
Since 1 July heating degree days 127  
Cooling Degree Days 0 1  
Month to date cooling degree days 24  
Year to date cooling degree days 453  
Growing Degree Days 9 (Base 50)    
Moisture  
Dew Point 49 °F    
Average Humidity 74    
Maximum Humidity 92    
Minimum Humidity 45    
Precipitation  
Precipitation 0.46 in 0.11 in 1.75 in (1914)
Month to date precipitation 1.76  
Year to date precipitation 21.34  
Snow  
Snow 0.00 in 0.00 in 0.00 in ()
Month to date snowfall 0.0  
Since 1 July snowfall 0.0  
Since 1 September snowfall 0.0  
Snow Depth -    
Sea Level Pressure  
Sea Level Pressure 30.00 in    
Wind  
Wind Speed 4 mph (SSE)    
Max Wind Speed 10 mph    
Max Gust Speed -    
Visibility 9 miles    
Events Rain    
T = Trace of Precipitation, MM = Missing Value Source: NWS Daily Summary

Daily Weather History Graph

Daily Weather History Graph

Search for Another Location

Airport or City:

Trip Planner

Search our weather history database for the weather conditions in past years. The results will help you decide how hot, cold, wet, or windy it might be!

Date:

Astronomy

Sep. 14, 2013 Rise Set
Actual Time 6:53 AM CDT 7:27 PM CDT
Civil Twilight 6:23 AM CDT 7:57 PM CDT
Nautical Twilight 5:48 AM CDT 8:32 PM CDT
Astronomical Twilight 5:11 AM CDT 9:08 PM CDT
Moon 4:19 PM CDT (9/14) 1:14 AM CDT (9/14)
Length of Visible Light 13h 33m
Length of Day
12h 34m
Waxing Gibbous, 72% of the Moon is Illuminated
Sep 14
Waxing Gibbous
Sep 19
Full
Sep 26
Last Quarter
Oct 4
New
Oct 11
First Quarter

Hourly Weather History & Observations

Time (CDT) Temp. Dew Point Humidity Pressure Visibility Wind Dir Wind Speed Gust Speed Precip Events Conditions
12:16 AM 52.2 °F 45.1 °F 77% 30.09 in 10.0 mi SE 4.6 mph - N/A   Clear
12:36 AM 52.5 °F 45.0 °F 75% 30.09 in 10.0 mi SE 4.6 mph - N/A   Clear
12:56 AM 52.0 °F 44.8 °F 76% 30.09 in 10.0 mi Calm Calm - N/A   Clear
1:16 AM 52.0 °F 44.8 °F 76% 30.09 in 10.0 mi Calm Calm - N/A   Clear
1:36 AM 51.4 °F 44.6 °F 77% 30.09 in 10.0 mi Calm Calm - N/A   Clear
1:56 AM 51.4 °F 44.6 °F 77% 30.09 in 10.0 mi Calm Calm - N/A   Clear
2:16 AM 50.0 °F 43.5 °F 78% 30.09 in 10.0 mi Calm Calm - N/A   Clear
2:36 AM 50.4 °F 43.7 °F 78% 30.09 in 10.0 mi Calm Calm - N/A   Clear
2:56 AM 49.6 °F 43.7 °F 80% 30.08 in 10.0 mi Calm Calm - N/A   Clear
3:16 AM 49.6 °F 43.3 °F 79% 30.07 in 10.0 mi Calm Calm - N/A   Clear
3:36 AM 50.4 °F 43.9 °F 78% 30.07 in 10.0 mi SSE 3.5 mph - N/A   Clear
3:56 AM 51.1 °F 43.9 °F 76% 30.07 in 10.0 mi South 3.5 mph - N/A   Clear
4:16 AM 51.4 °F 43.9 °F 75% 30.06 in 10.0 mi South 4.6 mph - N/A   Clear
4:36 AM 50.4 °F 43.3 °F 77% 30.06 in 10.0 mi SSE 3.5 mph - N/A   Clear
4:56 AM 50.0 °F 43.2 °F 77% 30.06 in 10.0 mi South 3.5 mph - N/A   Clear
5:16 AM 50.0 °F 43.0 °F 77% 30.06 in 10.0 mi Calm Calm - N/A   Clear
5:36 AM 49.6 °F 43.3 °F 79% 30.06 in 10.0 mi Calm Calm - N/A   Clear
5:56 AM 50.2 °F 43.7 °F 78% 30.06 in 10.0 mi South 4.6 mph - N/A   Clear
6:16 AM 50.2 °F 43.7 °F 78% 30.06 in 10.0 mi South 5.8 mph - N/A   Clear
6:36 AM 50.4 °F 43.3 °F 77% 30.06 in 10.0 mi South 5.8 mph - N/A   Clear
6:56 AM 50.4 °F 43.2 °F 76% 30.06 in 10.0 mi South 4.6 mph - N/A   Clear
7:16 AM 50.0 °F 42.8 °F 76% 30.06 in 10.0 mi Calm Calm - N/A   Clear
7:36 AM 49.8 °F 43.2 °F 78% 30.06 in 10.0 mi SSE 3.5 mph - N/A   Clear
7:56 AM 51.3 °F 43.7 °F 75% 30.06 in 10.0 mi South 5.8 mph - N/A   Clear
8:16 AM 52.7 °F 44.1 °F 72% 30.05 in 10.0 mi South 6.9 mph - N/A   Clear
8:36 AM 54.5 °F 44.2 °F 68% 30.05 in 10.0 mi South 10.4 mph - N/A   Clear
8:55 AM 55.6 °F 44.1 °F 65% 30.05 in 10.0 mi South 8.1 mph - N/A   Clear
9:16 AM 56.8 °F 44.4 °F 63% 30.04 in 10.0 mi South 6.9 mph - N/A   Clear
9:36 AM 59.5 °F 44.6 °F 58% 30.04 in 10.0 mi South 6.9 mph - N/A   Clear
9:55 AM 59.7 °F 44.6 °F 57% 30.03 in 10.0 mi South 6.9 mph - N/A   Clear
10:16 AM 62.1 °F 44.8 °F 53% 30.02 in 10.0 mi South 6.9 mph - N/A   Clear
10:36 AM 65.1 °F 45.9 °F 50% 30.02 in 10.0 mi South 9.2 mph - N/A   Clear
10:55 AM 64.9 °F 46.0 °F 50% 30.02 in 10.0 mi South 9.2 mph - N/A   Clear
11:16 AM 64.4 °F 45.9 °F 51% 30.01 in 10.0 mi South 6.9 mph - N/A   Clear
11:36 AM 65.5 °F 46.9 °F 51% 30.01 in 10.0 mi South 6.9 mph - N/A   Clear
11:56 AM 66.2 °F 46.4 °F 49% 30.00 in 10.0 mi South 6.9 mph - N/A   Clear
12:16 PM 66.2 °F 46.8 °F 50% 30.00 in 10.0 mi South 6.9 mph - N/A   Clear
12:36 PM 67.3 °F 47.3 °F 49% 29.99 in 10.0 mi South 5.8 mph - N/A   Clear
12:55 PM 68.9 °F 48.0 °F 47% 29.99 in 10.0 mi SSW 6.9 mph - N/A   Clear
1:16 PM 69.1 °F 47.1 °F 45% 29.98 in 10.0 mi South 8.1 mph - N/A   Clear
1:36 PM 68.2 °F 47.1 °F 47% 29.97 in 10.0 mi South 5.8 mph - N/A   Clear
1:56 PM 69.1 °F 48.7 °F 48% 29.97 in 10.0 mi South 4.6 mph - N/A   Scattered Clouds
2:16 PM 68.9 °F 48.6 °F 48% 29.96 in 10.0 mi South 4.6 mph - N/A   Mostly Cloudy
2:36 PM 67.3 °F 50.4 °F 55% 29.96 in 10.0 mi SSW 4.6 mph - N/A Rain Light Rain
2:56 PM 66.9 °F 51.1 °F 57% 29.95 in 10.0 mi SSW 3.5 mph - N/A Rain Light Rain
3:16 PM 67.3 °F 52.3 °F 59% 29.95 in 10.0 mi Calm Calm - N/A Rain Light Rain
3:36 PM 65.5 °F 53.6 °F 65% 29.94 in 7.0 mi Calm Calm - 0.01 in Rain Rain
3:56 PM 63.7 °F 57.2 °F 79% 29.94 in 7.0 mi Calm Calm - 0.03 in Rain Light Rain
4:16 PM 62.8 °F 56.8 °F 81% 29.94 in 7.0 mi Calm Calm - 0.01 in Rain Rain
4:36 PM 62.1 °F 57.7 °F 86% 29.94 in 5.0 mi Calm Calm - 0.05 in Rain Rain
4:56 PM 60.6 °F 56.7 °F 87% 29.92 in 7.0 mi ENE 4.6 mph - 0.08 in Rain Light Rain
5:16 PM 60.3 °F 56.5 °F 87% 29.91 in 7.0 mi East 3.5 mph - 0.01 in Rain Light Rain
5:36 PM 60.3 °F 56.8 °F 88% 29.91 in 10.0 mi NE 4.6 mph - 0.01 in Rain Light Rain
5:56 PM 60.3 °F 57.2 °F 90% 29.91 in 10.0 mi ENE 4.6 mph - 0.01 in   Light Drizzle
6:16 PM 60.3 °F 57.4 °F 90% 29.91 in 7.0 mi East 3.5 mph - 0.01 in Rain Rain
6:36 PM 59.4 °F 56.3 °F 90% 29.94 in 1.8 mi Calm Calm - 0.07 in Rain Rain
6:56 PM 58.5 °F 54.9 °F 88% 29.95 in 1.8 mi Calm Calm - 0.19 in Rain Heavy Rain
7:16 PM 57.4 °F 53.8 °F 88% 29.95 in 3.0 mi Calm Calm - 0.06 in Rain Rain
7:36 PM 57.2 °F 54.0 °F 89% 29.94 in 7.0 mi Calm Calm - 0.09 in Rain Light Rain
7:56 PM 57.4 °F 54.9 °F 91% 29.93 in 7.0 mi East 4.6 mph - 0.13 in Rain Light Rain
8:16 PM 57.2 °F 54.5 °F 91% 29.94 in 10.0 mi East 4.6 mph - N/A   Light Drizzle
8:36 PM 57.2 °F 54.7 °F 91% 29.94 in 10.0 mi East 4.6 mph - N/A   Light Drizzle
8:56 PM 57.0 °F 54.5 °F 91% 29.94 in 7.0 mi East 5.8 mph - N/A   Drizzle
9:16 PM 56.7 °F 54.5 °F 92% 29.94 in 5.0 mi East 6.9 mph - 0.01 in   Drizzle
9:36 PM 56.3 °F 53.8 °F 91% 29.93 in 5.0 mi East 8.1 mph - 0.01 in   Drizzle
9:56 PM 56.3 °F 54.0 °F 92% 29.92 in 5.0 mi East 9.2 mph - 0.01 in   Drizzle
10:16 PM 56.3 °F 54.0 °F 92% 29.92 in 4.0 mi ESE 8.1 mph - 0.01 in Rain Light Rain
10:36 PM 56.3 °F 54.0 °F 92% 29.91 in 3.0 mi East 9.2 mph - 0.01 in   Drizzle
10:56 PM 55.6 °F 53.2 °F 92% 29.91 in 5.0 mi ESE 9.2 mph - 0.01 in   Light Drizzle
11:16 PM 55.4 °F 53.1 °F 92% 29.91 in 5.0 mi ESE 8.1 mph - N/A   Light Drizzle
11:36 PM 55.4 °F 53.1 °F 92% 29.91 in 5.0 mi ESE 6.9 mph - N/A   Light Drizzle
11:56 PM 55.6 °F 53.2 °F 92% 29.91 in 5.0 mi East 6.9 mph - N/A   Light Drizzle